SCP
0 0 0 0 0 0 0 0 0 0 0 0 0 0 0 0 0 0 0 0 0 0 0 0 0 0 0 0 0 0 0 0 0 0 0 0 0 0 0 0 0 0 0 0 0 0 0 0 0
0 0 0 0 0 0 0 0 0 0 0 0 0 0 0 0 0 0 0 0 0 0 0 0 0 0 0 0 0 0 0 0 0 0 0 0 0 0 0 0 0 0 0 0 0 0 0 0 0
0 0 0 0 0 0 0 0 0 0 0 0 0 0 0 0 0 0 0 0 0 0 0 0 0 0 0 0 0 0 0 0 0 0 0 0 0 0 0 0 0 0 0 0 0 0 0 0 0
0 0 0 0 0 0 0 0 0 0 0 0 0 0 0 0 0 0 0 0 0 0 0 0 0 0 0 0 0 0 0 0 0 0 0 0 0 0 0 0 0 0 0 0 0 0 0 0 0
0 0 0 0 0 0 0 0 0 0 0 0 0 0 0 0 0 0 0 0 0 0 0 0 0 0 0 0 0 0 0 0 0 0 0 0 0 0 0 0 0 0 0 0 0 0 0 0 0
0 0 0 0 0 0 0 0 0 0 0 0 0 0 0 0 0 0 0 0 0 0 0 0 0 0 0 0 0 0 0 0 0 0 0 0 0 0 0 0 0 0 0 0 0 0 0 0 0
0 0 0 0 0 0 0 0 0 0 0 0 0 0 0 0 0 0 0 0 0 0 0 0 0 0 0 0 0 0 0 0 0 0 0 0 0 0 0 0 0 0 0 0 0 0 0 0 0
0 0 0 0 0 0 0 0 0 0 0 0 0 0 0 0 0 0 0 0 0 0 0 0 0 0 0 0 0 0 0 0 0 0 0 0 0 0 0 0 0 0 0 0 0 0 0 0 0
0 0 0 0 0 0 0 0 0 0 0 0 0 0 0 0 0 0 0 0 0 0 0 0 0 0 0 0 0 0 0 0 0 0 0 0 0 0 0 0 0 0 0 0 0 0 0 0 0
0 0 0 0 0 0 0 0 0 0 0 0 0 0 0 0 0 0 0 0 0 0 0 0 0 0 0 0 0 0 0 0 0 0 0 0 0 0 0 0 0 0 0 0 0 0 0 0 0
0 0 0 0 0 0 0 0 0 0 0 0 0 0 0 0 0 0 0 0 0 0 0 0 0 0 0 0 0 0 0 0 0 0 0 0 0 0 0 0 0 0 0 0 0 0 0 0 0
0 0 0 0 0 0 0 0 0 0 0 0 0 0 0 0 0 0 0 0 0 0 0 0 0 0 0 0 0 0 0 0 0 0 0 0 0 0 0 0 0 0 0 0 0 0 0 0 0
0 0 0 0 0 0 0 0 0 0 0 0 0 0 0 0 0 0 0 0 0 0 0 0 0 0 0 0 0 0 0 0 0 0 0 0 0 0 0 0 0 0 0 0 0 0 0 0 0
0 0 0 0 0 0 0 0 0 0 0 0 0 0 0 0 0 0 0 0 0 0 0 0 0 0 0 0 0 0 0 0 0 0 0 0 0 0 0 0 0 0 0 0 0 0 0 0 0
0 0 0 0 0 0 0 0 0 0 0 0 0 0 0 0 0 0 0 0 0 0 0 0 0 0 0 0 0 0 0 0 0 0 0 0 0 0 0 0 0 0 0 0 0 0 0 0 0
0 0 0 0 0 0 0 0 0 0 0 0 0 0 0 0 0 0 0 0 0 0 0 0 0 0 0 0 0 0 0 0 0 0 0 0 0 0 0 0 0 0 0 0 0 0 0 0 0
0 0 0 0 0 0 0 0 0 0 0 0 0 0 0 0 0 0 0 0 0 0 0 0 0 0 0 0 0 0 0 0 0 0 0 0 0 0 0 0 0 0 0 0 0 0 0 0 0
0 0 0 0 0 0 0 0 0 0 0 0 0 0 0 0 0 0 0 0 0 0 0 0 0 0 0 0 0 0 0 0 0 0 1 1 0 0 0 0 0 0 0 0 0 0 0 0 0
0 0 0 0 0 0 0 0 0 0 0 0 0 0 0 0 0 0 0 0 0 0 0 1 0 0 0 0 0 0 0 0 0 0 1 1 1 1 1 1 0 0 0 0 0 0 0 0 0
0 0 0 0 0 0 0 0 0 0 0 0 0 0 0 0 0 0 0 0 0 0 1 1 1 0 0 0 0 0 0 0 0 0 1 1 1 1 1 1 1 1 0 0 0 0 0 0 0
0 0 0 0 0 0 0 0 0 0 0 0 0 0 0 0 0 0 0 0 0 0 1 1 1 1 0 0 0 0 0 0 0 0 1 1 1 1 1 1 1 1 1 0 0 0 0 0 0
0 0 0 0 0 0 0 0 0 0 0 0 0 0 0 0 0 0 0 0 0 0 0 1 1 1 1 0 0 0 0 0 0 0 0 1 1 1 1 1 1 1 0 0 1 0 0 0 0
0 0 0 0 0 0 0 0 0 0 0 0 0 0 0 0 0 0 0 0 0 0 0 1 1 1 1 1 0 0 0 0 0 0 0 0 0 0 0 0 0 0 0 0 1 1 1 1 1
0 0 0 0 0 0 0 0 0 0 0 0 0 0 0 0 0 0 0 0 0 0 0 1 1 1 1 1 0 0 0 0 0 0 0 0 0 0 0 0 0 0 0 0 1 1 1 1 1
0 0 0 0 0 0 0 0 0 0 0 0 0 0 0 0 0 0 0 0 0 0 0 1 1 1 1 1 1 0 0 0 0 0 0 0 0 0 0 0 0 0 0 0 1 1 1 1 1
0 0 0 0 0 0 0 0 0 0 0 0 0 0 0 0 0 0 0 0 0 0 0 0 1 1 1 1 1 1 0 0 0 0 0 0 0 0 0 0 0 0 0 0 1 1 1 1 1
0 0 0 0 0 0 0 0 0 0 0 0 0 0 0 0 0 0 0 0 0 0 0 0 1 1 1 1 1 1 0 0 0 0 0 0 1 1 0 0 0 0 0 0 1 1 1 1 1
0 0 0 1 1 0 0 0 0 0 0 0 0 0 0 0 0 0 0 0 0 0 0 0 0 1 1 0 0 0 0 0 0 0 0 1 1 1 1 1 1 1 1 1 1 1 1 1 1
0 0 0 1 1 0 0 0 0 0 0 0 0 0 0 0 0 0 0 0 0 0 0 0 0 0 0 0 0 0 0 0 0 0 0 0 1 1 1 1 1 1 1 1 1 1 1 1 1
0 0 0 0 0 0 0 0 0 0 0 0 0 0 0 0 0 0 0 0 0 0 0 0 0 0 0 0 0 0 0 0 0 0 0 0 0 1 1 1 1 1 1 1 1 1 1 1 1
Wind_Speed
12 7 3 3 2 2 3 4 3 4 3 2 1 2 1 1 2 4 5 9 10 12 12 13 11 12 12 11 11 10 10 10 10 10 10 10 10 10 11 10 10 10 10 11 11 11 10 10 10
10 5 3 2 3 3 4 4 4 3 4 5 3 2 2 2 3 5 7 9 11 12 12 12 12 12 12 11 11 10 10 10 10 10 10 10 10 10 10 9 9 9 9 10 10 9 9 9 9
7 3 2 1 1 2 4 4 4 4 5 3 3 1 1 3 4 5 6 11 11 11 11 11 11 12 12 12 11 10 10 10 10 10 10 9 9 9 9 8 8 8 8 8 8 8 8 8 8
5 2 1 2 3 1 2 4 5 7 5 2 3 4 3 2 2 5 9 12 12 11 11 12 11 12 12 11 11 10 10 10 10 9 9 9 8 8 8 7 7 7 7 7 7 7 6 6 7
2 2 2 3 3 2 1 3 6 6 5 4 4 3 5 4 3 7 11 12 12 11 10 12 10 10 11 11 11 10 9 9 9 9 9 8 8 7 7 7 6 6 6 6 6 5 5 5 5
1 2 4 5 4 2 2 4 6 5 4 4 4 3 5 4 5 8 11 11 11 10 10 10 10 9 9 10 10 9 9 9 9 9 9 8 8 8 7 7 6 6 5 5 5 4 4 3 3
2 2 4 5 5 4 3 4 5 5 5 4 3 3 5 6 6 8 10 10 9 9 9 9 10 10 9 8 8 8 8 7 7 8 7 7 6 6 6 5 6 6 5 5 4 4 3 2 2
1 3 5 6 7 5 4 4 2 4 3 2 3 3 4 7 9 9 9 8 8 9 9 9 10 10 10 10 8 8 7 7 7 6 6 6 5 6 5 5 5 5 5 4 4 3 3 2 1
3 6 8 8 7 5 5 6 3 1 3 3 2 1 4 9 11 10 8 8 9 9 9 9 9 9 9 9 8 9 8 7 7 7 7 7 7 7 6 6 4 4 4 4 4 4 3 3 2
5 8 10 5 5 4 5 5 5 6 6 5 5 3 4 10 12 12 12 12 12 11 11 9 10 10 9 7 7 7 7 8 8 7 8 7 6 5 5 5 4 4 3 4 5 4 5 5 4
6 8 6 6 4 3 5 4 4 6 7 7 6 7 8 10 12 13 13 12 12 11 11 10 10 10 9 7 7 5 5 6 8 9 8 7 6 5 5 4 5 6 6 6 5 6 5 5 4
6 6 5 4 4 4 5 4 5 9 6 2 3 5 9 12 13 14 13 12 11 11 12 11 11 10 10 9 7 7 6 6 6 8 9 7 5 5 5 5 5 5 4 5 5 4 6 6 6
8 5 5 5 4 4 4 7 6 9 7 3 2 6 10 12 13 12 11 11 11 12 12 12 12 12 11 10 7 7 7 7 8 7 8 9 7 7 6 5 5 6 5 6 6 6 6 7 7
6 7 6 6 7 5 8 9 8 11 7 7 7 9 10 11 12 11 12 13 13 13 13 12 13 13 12 10 9 8 8 8 8 8 9 10 8 7 7 7 6 6 6 6 6 7 6 6 6
4 6 9 8 8 6 6 13 15 13 8 10 10 10 10 11 11 13 13 13 13 12 12 12 12 13 13 13 12 9 8 8 8 8 10 11 10 9 8 7 7 7 7 7 6 7 6 6 7
6 9 12 9 9 8 10 18 13 10 11 13 12 11 10 11 12 12 12 12 12 12 12 12 10 12 14 12 11 9 9 9 8 8 8 11 12 11 9 8 8 8 7 6 7 6 6 7 7
10 13 15 10 9 9 14 16 10 7 11 13 13 12 11 11 12 12 11 12 11 11 12 12 12 13 13 13 10 10 9 9 9 8 9 10 12 12 10 8 8 8 7 7 7 7 6 7 7
14 14 12 13 7 11 15 17 12 9 10 14 14 13 12 13 14 11 10 11 10 10 11 11 12 13 12 10 9 8 9 9 9 9 9 11 10 12 11 8 9 8 7 7 7 8 7 7 7
10 13 14 10 6 9 15 19 17 14 14 16 16 15 15 15 14 11 10 9 9 9 10 11 12 12 10 8 8 8 9 9 9 9 11 12 11 12 11 9 9 9 8 9 9 8 8 7 5
13 14 14 7 5 7 12 19 18 18 18 17 18 17 16 15 14 12 10 9 9 10 10 10 11 11 12 10 9 6 7 7 8 8 10 12 12 12 10 11 9 9 9 10 10 9 6 5 6
20 19 16 9 3 6 9 17 18 17 17 17 18 18 17 16 16 13 11 10 9 9 9 8 10 11 12 12 8 6 6 5 6 8 8 11 12 12 11 12 10 10 9 9 10 10 10 7 7
20 17 14 12 9 8 8 13 14 14 15 17 17 16 17 16 15 14 12 10 9 9 8 8 9 9 9 10 10 12 9 9 9 7 7 8 10 11 11 11 11 10 8 9 9 9 9 9 7
12 10 13 13 13 12 11 13 14 10 16 17 17 16 16 15 14 13 12 10 9 8 7 7 7 7 8 9 11 12 11 9 6 6 7 7 7 8 9 9 9 9 8 9 9 9 9 8 9
9 8 8 10 10 16 19 17 16 13 16 13 13 14 15 14 13 12 10 8 8 6 6 6 6 7 7 8 9 11 11 10 8 8 6 6 5 6 8 8 8 8 8 8 8 8 10 9 10
15 11 8 10 12 15 13 16 16 10 12 14 13 13 12 11 10 9 9 8 7 6 5 5 6 6 6 7 8 9 10 9 9 8 7 6 5 5 6 6 7 7 7 8 7 8 8 9 10
22 20 13 11 11 9 10 17 12 6 10 11 11 10 9 9 8 7 6 6 5 5 4 5 5 5 5 6 7 6 7 6 5 6 5 5 4 4 4 5 6 6 7 7 7 7 7 7 8
18 20 17 9 4 7 11 12 12 6 9 10 11 11 11 9 7 5 4 4 4 4 4 4 4 4 4 5 5 5 5 5 4 4 4 3 3 2 3 3 4 5 5 5 6 5 6 6 7
16 13 10 11 11 14 14 18 14 10 13 13 13 12 10 7 5 4 3 3 2 2 2 2 2 3 3 3 3 2 3 3 3 2 2 2 1 1 2 2 2 2 2 3 4 4 5 6 6
17 18 14 11 11 11 14 13 7 12 13 13 13 10 8 6 4 3 2 2 1 1 1 0 1 1 1 1 2 2 2 2 2 2 1 1 0 0 0 1 1 1 2 2 2 3 4 5 5
18 20 20 14 12 12 14 14 3 6 7 7 7 6 5 4 3 2 2 1 1 0 1 0 0 0 1 1 2 2 2 2 2 2 2 2 2 1 1 1 1 1 1 1 2 3 3 4 5
Wind_Direction
324 327 282 250 219 146 112 121 154 151 146 99 118 209 245 8 347 55 96 147 144 148 150 151 148 145 142 140 139 137 135 132 130 126 122 118 116 115 111 109 108 108 107 103 98 94 90 89 89
327 318 270 264 235 175 129 141 165 143 113 125 133 168 180 104 54 97 138 153 153 151 153 153 143 146 145 144 145 145 142 138 136 132 128 124 120 119 118 116 115 114 112 109 103 99 94 91 92
322 313 310 237 208 178 129 146 145 125 141 168 151 159 350 85 118 139 141 154 155 154 156 147 148 150 150 150 150 150 150 146 142 140 135 132 129 127 125 124 123 122 120 116 110 103 97 94 94
316 283 263 228 157 107 113 137 149 150 164 188 185 150 126 68 119 137 144 158 158 158 159 152 155 156 156 156 156 156 155 152 149 148 145 142 138 138 136 133 130 128 126 123 118 110 102 98 95
324 298 217 188 167 139 167 150 167 172 169 168 195 155 132 116 123 141 155 162 163 161 163 160 160 160 162 164 163 163 163 161 159 159 157 152 150 149 147 145 142 138 135 131 129 122 110 105 99
311 265 225 203 178 163 168 169 178 184 168 167 194 164 126 124 152 154 160 167 166 164 166 164 161 164 167 170 169 169 170 169 168 166 164 162 161 162 160 159 159 154 147 144 144 141 128 117 109
264 240 230 212 192 183 165 174 196 188 187 177 194 175 136 155 158 157 163 167 168 169 172 173 175 175 175 175 174 174 174 172 172 173 168 163 165 170 166 166 172 169 166 162 161 158 150 147 136
283 220 211 210 206 194 160 173 208 208 179 118 204 211 137 150 149 155 160 167 172 178 182 182 183 185 185 184 179 180 180 177 174 172 166 161 161 167 164 180 177 186 184 179 179 179 184 182 168
237 223 219 211 209 193 167 183 162 199 158 164 204 330 61 132 150 158 165 177 184 190 192 192 190 192 192 192 182 187 186 186 183 182 173 182 198 196 189 199 184 198 195 192 196 199 196 195 188
215 225 224 215 217 192 176 196 173 181 191 193 189 167 136 155 168 177 185 190 194 197 198 198 198 197 197 194 193 199 199 196 203 202 195 204 209 209 214 181 201 209 205 209 213 210 203 228 233
213 231 225 214 213 212 195 199 194 207 212 212 203 179 164 176 186 194 200 202 202 201 200 202 203 202 201 199 200 201 203 205 209 210 208 209 211 209 216 210 200 212 215 225 215 220 236 243 253
217 226 226 216 198 209 213 202 206 222 228 194 220 174 175 190 199 204 207 208 207 208 208 205 204 205 207 206 205 206 206 207 211 211 212 212 213 217 218 222 223 222 224 232 237 240 244 249 252
220 222 222 232 219 225 227 226 235 235 232 233 213 189 199 204 210 214 218 217 215 215 214 210 207 207 207 208 210 212 213 213 214 213 213 216 219 220 220 223 224 228 230 231 235 241 246 250 254
219 229 235 233 227 223 234 243 239 240 230 224 218 217 216 216 216 217 219 221 220 220 218 213 211 211 209 209 211 212 215 216 219 217 216 216 222 225 223 225 225 229 230 234 239 244 247 250 252
200 224 240 232 225 222 227 244 234 240 227 231 231 231 229 228 223 224 225 226 226 225 222 218 214 212 212 214 215 215 215 215 217 219 220 218 221 227 227 230 228 228 228 232 237 244 248 253 254
197 219 231 217 213 209 215 246 235 231 226 235 236 235 235 234 233 234 234 233 232 229 225 221 214 215 215 216 216 216 218 217 219 219 219 219 220 224 227 231 233 230 227 227 230 235 239 246 252
204 221 226 218 207 204 217 247 245 227 226 237 238 240 241 245 245 241 237 235 234 231 228 224 218 219 217 217 218 219 220 221 221 220 219 219 219 219 222 230 234 230 226 229 230 233 235 246 250
205 216 222 222 199 209 226 241 240 229 235 243 244 243 244 247 249 249 244 240 237 233 231 228 223 222 218 216 218 221 224 225 224 223 223 221 218 217 220 227 231 228 227 229 228 234 233 243 254
213 214 221 223 203 216 236 247 247 244 243 247 248 247 246 248 253 253 250 242 236 231 229 228 226 221 213 208 209 214 221 221 222 223 225 225 223 219 219 223 226 223 226 231 230 229 236 239 237
219 222 225 222 210 232 253 258 255 249 245 245 248 247 247 250 251 250 248 241 233 232 230 229 227 223 214 211 208 213 217 221 222 220 224 226 224 223 222 225 226 223 226 231 230 224 229 231 213
222 225 224 220 210 239 269 264 249 244 242 244 245 246 248 248 249 249 247 243 237 235 233 230 229 226 220 216 211 210 214 221 219 223 224 224 224 224 223 227 229 228 226 230 228 223 227 235 222
224 221 226 223 224 235 227 267 251 238 238 237 238 239 242 243 245 248 250 249 242 241 239 235 232 228 223 214 211 209 212 218 221 220 220 220 219 223 224 228 230 232 230 234 233 228 228 233 236
222 203 213 223 233 246 230 253 260 230 239 237 234 233 236 240 242 246 247 249 250 247 241 236 230 226 220 212 212 214 221 227 226 219 220 218 215 219 223 225 228 231 233 236 236 233 231 230 237
190 175 204 224 232 242 231 235 260 226 232 235 230 231 235 238 240 243 247 248 252 250 241 234 227 225 218 211 211 213 218 221 221 220 219 219 217 217 220 224 228 232 235 237 239 239 238 237 239
193 188 198 208 217 237 222 228 250 235 224 227 228 228 229 232 236 240 242 246 251 250 241 231 225 227 220 213 212 216 221 220 220 222 223 221 219 220 223 222 230 234 237 240 240 241 241 240 242
201 203 206 212 222 230 206 231 247 224 223 228 231 229 230 234 235 238 245 251 256 260 253 237 228 228 221 213 213 216 220 221 223 222 221 220 224 228 232 228 234 239 242 243 242 242 244 246 247
202 214 226 245 258 249 227 240 253 228 226 224 226 227 231 234 235 241 254 260 262 262 257 246 236 231 225 217 211 208 210 211 215 217 218 224 230 237 236 234 237 241 244 248 249 247 250 253 254
214 202 201 215 223 236 241 241 240 207 213 216 220 225 232 233 231 239 250 264 276 282 274 252 238 231 223 213 205 198 197 197 197 193 199 211 233 236 233 235 239 247 251 252 251 257 260 259 261
199 205 209 214 225 232 244 245 234 222 210 212 216 219 221 222 223 231 248 265 295 320 308 258 208 214 199 177 169 167 167 164 156 152 149 135 88 19 287 259 249 255 269 273 265 266 276 271 271
214 213 210 214 218 228 246 253 154 214 211 209 211 211 214 210 213 219 236 250 268 320 346 354 58 134 136 132 133 126 114 105 102 93 80 73 63 48 33 16 357 344 335 317 289 280 282 279 280